Time,TemperatureF,DewpointF,PressureIn,WindDirection,WindDirectionDegrees,WindSpeedMPH,WindSpeedGustMPH,Humidity,HourlyPrecipIn,Conditions,Clouds,dailyrainin,SoftwareType,DateUTC
2013-03-31 00:00:00,44.8,42.9,29.15,West,270,0.0,0.0,93,0.00,,---,0.00,VWS V12.08,2013-03-31 05:00:00,
2013-03-31 00:05:00,44.6,42.7,29.15,West,270,0.0,0.0,93,0.00,,---,0.00,VWS V12.08,2013-03-31 05:05:00,
2013-03-31 00:10:00,44.4,42.5,29.15,West,270,0.0,0.0,93,0.00,,---,0.00,VWS V12.08,2013-03-31 05:10:00,
2013-03-31 00:16:00,44.3,42.4,29.15,West,270,0.0,0.0,93,0.00,,---,0.00,VWS V12.08,2013-03-31 05:16:00,
2013-03-31 00:21:00,44.2,42.3,29.15,West,270,0.0,0.0,93,0.00,,---,0.00,VWS V12.08,2013-03-31 05:21:00,
2013-03-31 00:26:00,44.0,42.1,29.14,West,270,0.0,0.0,93,0.00,,---,0.00,VWS V12.08,2013-03-31 05:26:00,
2013-03-31 00:31:00,43.9,42.0,29.14,West,270,0.0,0.0,93,0.00,,---,0.00,VWS V12.08,2013-03-31 05:31:00,
2013-03-31 00:36:00,43.8,41.9,29.14,West,270,0.0,0.0,93,0.00,,---,0.00,VWS V12.08,2013-03-31 05:36:00,
2013-03-31 00:41:00,43.7,41.8,29.14,West,270,0.0,0.0,93,0.00,,---,0.00,VWS V12.08,2013-03-31 05:41:00,
2013-03-31 00:47:00,43.6,41.7,29.14,West,270,0.0,0.0,93,0.00,,---,0.00,VWS V12.08,2013-03-31 05:47:00,
2013-03-31 00:52:00,43.5,41.6,29.13,West,270,0.0,0.0,93,0.00,,---,0.00,VWS V12.08,2013-03-31 05:52:00,
2013-03-31 00:57:00,43.4,41.5,29.14,West,270,0.0,0.0,93,0.00,,---,0.00,VWS V12.08,2013-03-31 05:57:00,
2013-03-31 01:03:00,43.3,41.4,29.14,West,270,0.0,0.0,93,0.00,,---,0.00,VWS V12.08,2013-03-31 06:03:00,
2013-03-31 01:08:00,43.1,41.2,29.14,West,270,0.0,0.0,93,0.00,,---,0.00,VWS V12.08,2013-03-31 06:08:00,
2013-03-31 01:13:00,43.0,41.1,29.15,West,270,0.0,0.0,93,0.00,,---,0.00,VWS V12.08,2013-03-31 06:13:00,
2013-03-31 01:18:00,42.8,41.2,29.14,West,270,0.0,0.0,94,0.00,,---,0.00,VWS V12.08,2013-03-31 06:18:00,
2013-03-31 01:23:00,42.7,41.1,29.14,West,270,0.0,0.0,94,0.00,,---,0.00,VWS V12.08,2013-03-31 06:23:00,
2013-03-31 01:28:00,42.6,40.7,29.14,West,270,0.0,0.0,93,0.00,,---,0.00,VWS V12.08,2013-03-31 06:28:00,
2013-03-31 01:33:00,42.5,40.6,29.14,West,270,0.0,0.0,93,0.00,,---,0.00,VWS V12.08,2013-03-31 06:33:00,
2013-03-31 01:38:00,42.4,40.8,29.14,West,270,0.0,0.0,94,0.00,,---,0.00,VWS V12.08,2013-03-31 06:38:00,
2013-03-31 01:43:00,42.3,40.7,29.14,West,270,0.0,0.0,94,0.00,,---,0.00,VWS V12.08,2013-03-31 06:43:00,
2013-03-31 01:48:00,42.3,40.7,29.15,West,270,0.0,0.0,94,0.00,,---,0.00,VWS V12.08,2013-03-31 06:48:00,
2013-03-31 01:53:00,42.3,40.7,29.15,West,270,0.0,0.0,94,0.00,,---,0.00,VWS V12.08,2013-03-31 06:53:00,
2013-03-31 01:58:00,42.2,40.6,29.15,West,270,0.0,0.0,94,0.00,,---,0.00,VWS V12.08,2013-03-31 06:58:00,
2013-03-31 02:03:00,42.3,40.7,29.15,West,270,0.0,0.0,94,0.01,,---,0.01,VWS V12.08,2013-03-31 07:03:00,
2013-03-31 02:08:00,42.3,40.7,29.15,West,270,0.0,0.0,94,0.01,,---,0.01,VWS V12.08,2013-03-31 07:08:00,
2013-03-31 02:13:00,42.1,40.5,29.15,West,270,0.0,0.0,94,0.01,,---,0.01,VWS V12.08,2013-03-31 07:13:00,
2013-03-31 02:18:00,42.1,40.5,29.15,West,270,0.0,0.0,94,0.01,,---,0.01,VWS V12.08,2013-03-31 07:18:00,
2013-03-31 02:24:00,42.1,40.5,29.16,West,270,0.0,1.0,94,0.01,,---,0.01,VWS V12.08,2013-03-31 07:24:00,
2013-03-31 02:30:00,42.1,40.5,29.15,West,270,0.0,1.0,94,0.01,,---,0.01,VWS V12.08,2013-03-31 07:30:00,
2013-03-31 02:35:00,42.1,40.5,29.15,West,270,0.0,0.0,94,0.01,,---,0.01,VWS V12.08,2013-03-31 07:35:00,
2013-03-31 02:41:00,42.2,40.6,29.15,West,270,0.0,0.0,94,0.01,,---,0.01,VWS V12.08,2013-03-31 07:41:00,
2013-03-31 02:47:00,42.3,40.7,29.13,West,270,0.0,0.0,94,0.01,,---,0.01,VWS V12.08,2013-03-31 07:47:00,
2013-03-31 02:52:00,42.4,40.8,29.13,West,270,0.0,0.0,94,0.01,,---,0.01,VWS V12.08,2013-03-31 07:52:00,
2013-03-31 02:58:00,42.5,40.9,29.13,WNW,298,0.0,0.0,94,0.01,,---,0.01,VWS V12.08,2013-03-31 07:58:00,
2013-03-31 03:03:00,42.4,40.8,29.13,NNW,329,0.0,0.0,94,0.01,,---,0.01,VWS V12.08,2013-03-31 08:03:00,
2013-03-31 03:08:00,42.2,40.6,29.14,NNW,329,0.0,0.0,94,0.01,,---,0.01,VWS V12.08,2013-03-31 08:08:00,
2013-03-31 03:13:00,42.3,40.7,29.14,NW,318,0.0,0.0,94,0.01,,---,0.01,VWS V12.08,2013-03-31 08:13:00,
2013-03-31 03:18:00,42.3,40.7,29.14,NW,320,0.0,0.0,94,0.01,,---,0.01,VWS V12.08,2013-03-31 08:18:00,
2013-03-31 03:23:00,42.1,40.5,29.14,NW,318,0.0,0.0,94,0.01,,---,0.01,VWS V12.08,2013-03-31 08:23:00,
2013-03-31 03:29:00,41.8,40.2,29.14,NW,318,0.0,0.0,94,0.01,,---,0.01,VWS V12.08,2013-03-31 08:29:00,
2013-03-31 03:34:00,41.4,39.8,29.13,NW,317,0.0,0.0,94,0.00,,---,0.01,VWS V12.08,2013-03-31 08:34:00,
2013-03-31 03:39:00,41.1,39.5,29.13,NW,317,0.0,0.0,94,0.00,,---,0.01,VWS V12.08,2013-03-31 08:39:00,
2013-03-31 03:44:00,40.9,39.3,29.13,NW,317,0.0,0.0,94,0.00,,---,0.01,VWS V12.08,2013-03-31 08:44:00,
2013-03-31 03:49:00,40.6,39.0,29.13,NW,317,0.0,0.0,94,0.00,,---,0.01,VWS V12.08,2013-03-31 08:49:00,
2013-03-31 03:54:00,40.4,38.8,29.14,NW,317,0.0,0.0,94,0.00,,---,0.01,VWS V12.08,2013-03-31 08:54:00,
2013-03-31 04:00:00,40.0,38.1,29.13,NW,317,0.0,0.0,93,0.00,,---,0.01,VWS V12.08,2013-03-31 09:00:00,
2013-03-31 04:05:00,39.6,38.0,29.13,NW,317,0.0,1.0,94,0.00,,---,0.01,VWS V12.08,2013-03-31 09:05:00,
2013-03-31 04:30:00,38.4,36.8,29.13,NW,317,0.0,1.0,94,0.00,,---,0.01,VWS V12.08,2013-03-31 09:30:00,
2013-03-31 04:35:00,38.2,36.6,29.13,NW,317,0.0,0.0,94,0.00,,---,0.01,VWS V12.08,2013-03-31 09:35:00,
2013-03-31 05:02:00,37.2,35.4,29.14,NW,317,0.0,0.0,93,0.00,,---,0.01,VWS V12.08,2013-03-31 10:02:00,
2013-03-31 05:07:00,36.9,35.3,29.14,NW,317,0.0,0.0,94,0.00,,---,0.01,VWS V12.08,2013-03-31 10:07:00,
2013-03-31 05:14:00,36.7,35.1,29.13,NW,317,0.0,0.0,94,0.00,,---,0.01,VWS V12.08,2013-03-31 10:14:00,
2013-03-31 05:20:00,36.4,34.8,29.14,NW,317,0.0,0.0,94,0.00,,---,0.01,VWS V12.08,2013-03-31 10:20:00,
2013-03-31 05:25:00,36.3,34.7,29.14,NW,317,0.0,0.0,94,0.00,,---,0.01,VWS V12.08,2013-03-31 10:25:00,
2013-03-31 05:34:00,36.2,34.6,29.14,NW,317,0.0,0.0,94,0.00,,---,0.01,VWS V12.08,2013-03-31 10:34:00,
2013-03-31 05:40:00,36.0,34.4,29.14,NW,317,0.0,0.0,94,0.00,,---,0.01,VWS V12.08,2013-03-31 10:40:00,
2013-03-31 05:45:00,35.8,34.2,29.14,NW,317,0.0,0.0,94,0.00,,---,0.01,VWS V12.08,2013-03-31 10:45:00,
2013-03-31 05:50:00,35.7,34.2,29.14,NW,317,0.0,0.0,94,0.00,,---,0.01,VWS V12.08,2013-03-31 10:50:00,
2013-03-31 05:55:00,35.8,34.2,29.14,NW,317,0.0,0.0,94,0.00,,---,0.01,VWS V12.08,2013-03-31 10:55:00,
2013-03-31 06:00:00,35.9,34.3,29.14,NW,317,0.0,0.0,94,0.00,,---,0.01,VWS V12.08,2013-03-31 11:00:00,
2013-03-31 06:05:00,35.7,34.2,29.15,NW,317,0.0,1.0,94,0.00,,---,0.01,VWS V12.08,2013-03-31 11:05:00,
2013-03-31 06:10:00,35.5,34.0,29.15,NW,319,0.0,1.0,94,0.00,,---,0.01,VWS V12.08,2013-03-31 11:10:00,
2013-03-31 06:15:00,35.6,34.0,29.15,NNW,327,0.0,1.0,94,0.00,,---,0.01,VWS V12.08,2013-03-31 11:15:00,
2013-03-31 06:22:00,35.6,34.0,29.15,NW,319,0.0,1.0,94,0.00,,---,0.01,VWS V12.08,2013-03-31 11:22:00,
2013-03-31 06:28:00,35.4,33.8,29.15,NW,321,0.0,1.0,94,0.00,,---,0.01,VWS V12.08,2013-03-31 11:28:00,
2013-03-31 06:34:00,35.3,33.8,29.15,NW,322,0.0,0.0,94,0.00,,---,0.01,VWS V12.08,2013-03-31 11:34:00,
2013-03-31 06:39:00,35.4,33.8,29.15,NNW,332,0.0,0.0,94,0.00,,---,0.01,VWS V12.08,2013-03-31 11:39:00,
2013-03-31 06:45:00,35.4,33.8,29.15,NW,322,0.0,1.0,94,0.00,,---,0.01,VWS V12.08,2013-03-31 11:45:00,
2013-03-31 06:51:00,35.4,33.8,29.15,NW,321,0.0,1.0,94,0.00,,---,0.01,VWS V12.08,2013-03-31 11:51:00,
2013-03-31 06:56:00,35.4,33.8,29.15,NW,322,0.0,1.0,94,0.00,,---,0.01,VWS V12.08,2013-03-31 11:56:00,
2013-03-31 07:01:00,35.5,34.0,29.16,NNW,333,0.0,0.0,94,0.00,,---,0.01,VWS V12.08,2013-03-31 12:01:00,
2013-03-31 07:07:00,35.6,34.0,29.16,NNW,327,0.0,0.0,94,0.00,,---,0.01,VWS V12.08,2013-03-31 12:07:00,
2013-03-31 07:13:00,35.7,34.2,29.16,NW,325,0.0,0.0,94,0.00,,---,0.01,VWS V12.08,2013-03-31 12:13:00,
2013-03-31 07:18:00,35.7,34.2,29.16,NNW,330,0.0,0.0,94,0.00,,---,0.01,VWS V12.08,2013-03-31 12:18:00,
2013-03-31 07:23:00,35.7,34.2,29.16,NNW,340,0.0,0.0,94,0.00,,---,0.01,VWS V12.08,2013-03-31 12:23:00,
2013-03-31 07:28:00,35.8,34.2,29.16,NNW,337,0.0,0.0,94,0.00,,---,0.01,VWS V12.08,2013-03-31 12:28:00,
2013-03-31 07:33:00,35.9,34.3,29.16,NNW,330,0.0,0.0,94,0.00,,---,0.01,VWS V12.08,2013-03-31 12:33:00,
2013-03-31 07:38:00,36.1,34.5,29.16,NW,325,0.0,0.0,94,0.00,,---,0.01,VWS V12.08,2013-03-31 12:38:00,
2013-03-31 07:43:00,36.2,34.6,29.16,NW,324,0.0,0.0,94,0.00,,---,0.01,VWS V12.08,2013-03-31 12:43:00,
2013-03-31 07:48:00,36.3,34.7,29.16,NW,325,0.0,0.0,94,0.00,,---,0.01,VWS V12.08,2013-03-31 12:48:00,
2013-03-31 07:54:00,36.5,34.9,29.16,NW,325,0.0,0.0,94,0.00,,---,0.01,VWS V12.08,2013-03-31 12:54:00,
2013-03-31 08:00:00,36.6,35.0,29.15,North,351,0.0,0.0,94,0.00,,---,0.01,VWS V12.08,2013-03-31 13:00:00,
2013-03-31 08:05:00,36.9,35.3,29.15,NNW,336,0.0,0.0,94,0.00,,---,0.01,VWS V12.08,2013-03-31 13:05:00,
2013-03-31 08:10:00,37.1,35.5,29.16,NNW,327,0.0,0.0,94,0.00,,---,0.01,VWS V12.08,2013-03-31 13:10:00,
2013-03-31 08:17:00,37.4,35.8,29.15,NNW,333,0.0,1.0,94,0.00,,---,0.01,VWS V12.08,2013-03-31 13:17:00,
2013-03-31 08:22:00,37.7,36.1,29.15,NNW,332,0.0,1.0,94,0.00,,---,0.01,VWS V12.08,2013-03-31 13:22:00,
2013-03-31 08:28:00,38.1,36.8,29.15,NNW,332,0.0,1.0,95,0.00,,---,0.01,VWS V12.08,2013-03-31 13:28:00,
2013-03-31 08:33:00,38.3,37.0,29.16,NNW,334,0.0,1.0,95,0.00,,---,0.01,VWS V12.08,2013-03-31 13:33:00,
2013-03-31 08:38:00,38.7,37.4,29.16,NNW,334,0.0,1.0,95,0.00,,---,0.01,VWS V12.08,2013-03-31 13:38:00,
2013-03-31 08:43:00,39.1,37.8,29.16,NNW,337,0.0,1.0,95,0.00,,---,0.01,VWS V12.08,2013-03-31 13:43:00,
2013-03-31 08:49:00,39.3,38.0,29.16,NNW,340,0.0,1.0,95,0.00,,---,0.01,VWS V12.08,2013-03-31 13:49:00,
2013-03-31 08:54:00,39.8,38.5,29.14,NNW,340,0.0,1.0,95,0.00,,---,0.01,VWS V12.08,2013-03-31 13:54:00,
2013-03-31 08:59:00,40.2,38.9,29.14,NNW,347,0.0,1.0,95,0.00,,---,0.01,VWS V12.08,2013-03-31 13:59:00,
2013-03-31 09:04:00,40.6,39.3,29.14,NNW,348,0.0,1.0,95,0.00,,---,0.01,VWS V12.08,2013-03-31 14:04:00,
2013-03-31 09:09:00,41.1,39.8,29.14,NNW,347,0.0,1.0,95,0.00,,---,0.01,VWS V12.08,2013-03-31 14:09:00,
2013-03-31 09:15:00,41.2,39.9,29.14,NNW,337,1.0,1.0,95,0.00,,---,0.01,VWS V12.08,2013-03-31 14:15:00,
2013-03-31 09:20:00,41.7,40.4,29.14,North,358,1.0,1.0,95,0.00,,---,0.01,VWS V12.08,2013-03-31 14:20:00,
2013-03-31 09:25:00,41.7,40.4,29.14,North,353,1.0,5.0,95,0.00,,---,0.01,VWS V12.08,2013-03-31 14:25:00,
2013-03-31 09:31:00,42.1,40.8,29.14,NNW,345,0.0,1.0,95,0.00,,---,0.01,VWS V12.08,2013-03-31 14:31:00,
2013-03-31 09:36:00,42.5,41.2,29.14,NNE,13,0.0,1.0,95,0.00,,---,0.01,VWS V12.08,2013-03-31 14:36:00,
2013-03-31 09:41:00,42.7,41.6,29.14,NNW,344,0.0,1.0,96,0.00,,---,0.01,VWS V12.08,2013-03-31 14:41:00,
2013-03-31 09:46:00,42.9,41.6,29.14,WNW,295,0.0,1.0,95,0.00,,---,0.01,VWS V12.08,2013-03-31 14:46:00,
2013-03-31 09:51:00,43.0,41.9,29.14,NNW,336,0.0,7.0,96,0.00,,---,0.01,VWS V12.08,2013-03-31 14:51:00,
2013-03-31 09:56:00,42.9,41.6,29.14,WNW,286,6.0,7.0,95,0.00,,---,0.01,VWS V12.08,2013-03-31 14:56:00,
2013-03-31 10:01:00,42.3,41.0,29.14,North,356,0.0,0.0,95,0.00,,---,0.01,VWS V12.08,2013-03-31 15:01:00,
2013-03-31 10:06:00,42.4,41.1,29.15,NNW,334,0.0,2.0,95,0.00,,---,0.01,VWS V12.08,2013-03-31 15:06:00,
2013-03-31 10:11:00,42.7,41.4,29.15,North,351,0.0,7.0,95,0.00,,---,0.01,VWS V12.08,2013-03-31 15:11:00,
2013-03-31 10:19:00,42.6,41.3,29.15,NNE,23,0.0,7.0,95,0.00,,---,0.01,VWS V12.08,2013-03-31 15:19:00,
2013-03-31 10:24:00,42.5,41.2,29.15,NNW,335,2.0,7.0,95,0.00,,---,0.01,VWS V12.08,2013-03-31 15:24:00,
2013-03-31 10:30:00,42.6,41.3,29.15,North,352,1.0,9.0,95,0.00,,---,0.01,VWS V12.08,2013-03-31 15:30:00,
2013-03-31 10:35:00,42.5,41.2,29.16,NW,318,0.0,8.0,95,0.00,,---,0.01,VWS V12.08,2013-03-31 15:35:00,
2013-03-31 10:40:00,42.5,41.2,29.16,NW,320,0.0,8.0,95,0.00,,---,0.01,VWS V12.08,2013-03-31 15:40:00,
2013-03-31 10:45:00,43.0,41.7,29.17,NNW,341,0.0,9.0,95,0.00,,---,0.01,VWS V12.08,2013-03-31 15:45:00,
2013-03-31 10:50:00,43.5,42.2,29.16,North,349,1.0,9.0,95,0.00,,---,0.01,VWS V12.08,2013-03-31 15:50:00,
2013-03-31 10:55:00,43.9,42.6,29.16,NNW,346,0.0,11.0,95,0.00,,---,0.01,VWS V12.08,2013-03-31 15:55:00,
2013-03-31 11:02:00,44.4,42.8,29.16,NW,314,0.0,10.0,94,0.00,,---,0.01,VWS V12.08,2013-03-31 16:02:00,
2013-03-31 11:07:00,44.8,43.2,29.16,NW,316,7.0,11.0,94,0.00,,---,0.01,VWS V12.08,2013-03-31 16:07:00,
2013-03-31 11:13:00,45.6,43.1,29.17,NW,318,4.0,11.0,91,0.00,,---,0.01,VWS V12.08,2013-03-31 16:13:00,
2013-03-31 11:18:00,46.2,42.8,29.16,North,1,0.0,11.0,88,0.00,,---,0.01,VWS V12.08,2013-03-31 16:18:00,
2013-03-31 11:23:00,46.1,41.2,29.16,NW,325,6.0,11.0,83,0.00,,---,0.01,VWS V12.08,2013-03-31 16:23:00,
2013-03-31 11:28:00,45.9,41.0,29.16,NW,321,7.0,11.0,83,0.00,,---,0.01,VWS V12.08,2013-03-31 16:28:00,
2013-03-31 11:34:00,46.2,40.4,29.16,North,0,0.0,9.0,80,0.00,,---,0.01,VWS V12.08,2013-03-31 16:34:00,
2013-03-31 11:40:00,46.7,39.9,29.15,NW,310,2.0,11.0,77,0.00,,---,0.01,VWS V12.08,2013-03-31 16:40:00,
2013-03-31 11:45:00,46.6,38.8,29.16,NW,318,9.0,12.0,74,0.00,,---,0.01,VWS V12.08,2013-03-31 16:45:00,
2013-03-31 11:51:00,47.1,39.6,29.16,North,358,1.0,12.0,75,0.00,,---,0.01,VWS V12.08,2013-03-31 16:51:00,
2013-03-31 11:57:00,48.2,39.2,29.15,NNW,340,0.0,12.0,71,0.00,,---,0.01,VWS V12.08,2013-03-31 16:57:00,
2013-03-31 12:02:00,48.5,39.2,29.15,North,355,1.0,11.0,70,0.00,,---,0.01,VWS V12.08,2013-03-31 17:02:00,
2013-03-31 12:07:00,49.0,38.9,29.15,North,353,4.0,11.0,68,0.00,,---,0.01,VWS V12.08,2013-03-31 17:07:00,
2013-03-31 12:12:00,49.0,38.5,29.15,NNW,333,8.0,11.0,67,0.00,,---,0.01,VWS V12.08,2013-03-31 17:12:00,
2013-03-31 12:19:00,49.5,39.4,29.15,NNW,341,0.0,11.0,68,0.00,,---,0.01,VWS V12.08,2013-03-31 17:19:00,
2013-03-31 12:25:00,49.6,38.7,29.14,NW,310,10.0,11.0,66,0.00,,---,0.01,VWS V12.08,2013-03-31 17:25:00,
2013-03-31 12:30:00,49.8,38.5,29.15,NW,315,10.0,10.0,65,0.00,,---,0.01,VWS V12.08,2013-03-31 17:30:00,
2013-03-31 12:35:00,50.1,36.8,29.15,NNW,333,9.0,12.0,60,0.00,,---,0.01,VWS V12.08,2013-03-31 17:35:00,
2013-03-31 12:42:00,50.4,37.9,29.15,NNW,335,0.0,12.0,62,0.00,,---,0.01,VWS V12.08,2013-03-31 17:42:00,
2013-03-31 12:49:00,50.9,35.8,29.15,NW,312,6.0,15.0,56,0.00,,---,0.01,VWS V12.08,2013-03-31 17:49:00,
2013-03-31 12:55:00,51.1,36.4,29.14,WNW,294,8.0,15.0,57,0.00,,---,0.01,VWS V12.08,2013-03-31 17:55:00,
2013-03-31 13:00:00,50.7,35.6,29.14,NW,317,0.0,15.0,56,0.00,,---,0.01,VWS V12.08,2013-03-31 18:00:00,
2013-03-31 13:05:00,50.9,35.3,29.14,North,352,1.0,13.0,55,0.00,,---,0.01,VWS V12.08,2013-03-31 18:05:00,
2013-03-31 13:10:00,51.5,34.5,29.14,NNW,335,0.0,13.0,52,0.00,,---,0.01,VWS V12.08,2013-03-31 18:10:00,
2013-03-31 13:18:00,51.7,33.7,29.14,NNW,333,8.0,13.0,50,0.00,,---,0.01,VWS V12.08,2013-03-31 18:18:00,
2013-03-31 13:24:00,51.9,33.4,29.14,NW,325,10.0,18.0,49,0.00,,---,0.01,VWS V12.08,2013-03-31 18:24:00,
2013-03-31 13:30:00,52.2,32.1,29.14,WNW,303,0.0,19.0,46,0.00,,---,0.01,VWS V12.08,2013-03-31 18:30:00,
2013-03-31 13:35:00,52.6,30.2,29.14,NNW,333,6.0,16.0,42,0.00,,---,0.01,VWS V12.08,2013-03-31 18:35:00,
2013-03-31 13:41:00,53.3,30.2,29.14,NW,311,9.0,16.0,41,0.00,,---,0.01,VWS V12.08,2013-03-31 18:41:00,
2013-03-31 13:46:00,53.1,28.8,29.14,NW,321,8.0,18.0,39,0.00,,---,0.01,VWS V12.08,2013-03-31 18:46:00,
2013-03-31 13:53:00,53.0,28.7,29.14,NW,315,11.0,20.0,39,0.00,,---,0.01,VWS V12.08,2013-03-31 18:53:00,
2013-03-31 13:58:00,53.2,28.9,29.14,NW,321,14.0,20.0,39,0.00,,---,0.01,VWS V12.08,2013-03-31 18:58:00,
2013-03-31 14:03:00,53.2,26.3,29.14,NW,304,10.0,16.0,35,0.00,,---,0.01,VWS V12.08,2013-03-31 19:03:00,
2013-03-31 14:08:00,53.5,25.1,29.14,NNW,344,4.0,16.0,33,0.00,,---,0.01,VWS V12.08,2013-03-31 19:08:00,
2013-03-31 14:13:00,53.8,26.8,29.15,WNW,289,4.0,16.0,35,0.00,,---,0.01,VWS V12.08,2013-03-31 19:13:00,
2013-03-31 14:18:00,53.7,25.3,29.15,WNW,298,9.0,16.0,33,0.00,,---,0.01,VWS V12.08,2013-03-31 19:18:00,
2013-03-31 14:23:00,53.9,26.2,29.15,NNW,341,4.0,16.0,34,0.00,,---,0.01,VWS V12.08,2013-03-31 19:23:00,
2013-03-31 14:28:00,53.9,26.9,29.15,NW,322,7.0,16.0,35,0.00,,---,0.01,VWS V12.08,2013-03-31 19:28:00,
2013-03-31 14:36:00,53.2,24.9,29.15,NW,320,12.0,16.0,33,0.00,,---,0.01,VWS V12.08,2013-03-31 19:36:00,
2013-03-31 14:41:00,52.8,24.5,29.15,NNW,329,10.0,16.0,33,0.00,,---,0.01,VWS V12.08,2013-03-31 19:41:00,
2013-03-31 14:46:00,52.7,25.8,29.15,NNW,338,0.0,16.0,35,0.00,,---,0.01,VWS V12.08,2013-03-31 19:46:00,
2013-03-31 14:51:00,52.8,26.6,29.15,NW,307,5.0,16.0,36,0.00,,---,0.01,VWS V12.08,2013-03-31 19:51:00,
2013-03-31 14:57:00,53.1,26.9,29.15,NW,319,7.0,16.0,36,0.00,,---,0.01,VWS V12.08,2013-03-31 19:57:00,
2013-03-31 15:03:00,52.8,27.9,29.15,NNW,328,11.0,14.0,38,0.00,,---,0.01,VWS V12.08,2013-03-31 20:03:00,
2013-03-31 15:09:00,52.5,29.5,29.16,NNW,334,9.0,14.0,41,0.00,,---,0.01,VWS V12.08,2013-03-31 20:09:00,
2013-03-31 15:19:00,51.6,31.0,29.15,NNW,340,8.0,14.0,45,0.00,,---,0.01,VWS V12.08,2013-03-31 20:19:00,
2013-03-31 15:25:00,51.8,30.0,29.16,NW,317,12.0,15.0,43,0.00,,---,0.01,VWS V12.08,2013-03-31 20:25:00,
2013-03-31 15:30:00,51.5,30.3,29.16,NW,324,6.0,6.0,44,0.00,,---,0.01,VWS V12.08,2013-03-31 20:30:00,
2013-03-31 15:36:00,51.5,30.3,29.16,NNW,337,0.0,13.0,44,0.00,,---,0.01,VWS V12.08,2013-03-31 20:36:00,
2013-03-31 15:43:00,51.6,30.4,29.16,NW,313,9.0,13.0,44,0.00,,---,0.01,VWS V12.08,2013-03-31 20:43:00,
2013-03-31 15:48:00,51.4,30.8,29.16,NNW,337,7.0,14.0,45,0.00,,---,0.01,VWS V12.08,2013-03-31 20:48:00,
2013-03-31 15:54:00,51.0,31.0,29.16,NW,323,6.0,14.0,46,0.00,,---,0.01,VWS V12.08,2013-03-31 20:54:00,
2013-03-31 16:00:00,51.0,31.0,29.16,WNW,295,4.0,14.0,46,0.00,,---,0.01,VWS V12.08,2013-03-31 21:00:00,
2013-03-31 16:05:00,50.7,30.7,29.16,NNW,335,7.0,12.0,46,0.00,,---,0.01,VWS V12.08,2013-03-31 21:05:00,
2013-03-31 16:10:00,50.8,30.2,29.17,NNW,345,8.0,13.0,45,0.00,,---,0.01,VWS V12.08,2013-03-31 21:10:00,
2013-03-31 16:18:00,50.8,29.7,29.16,WNW,303,9.0,15.0,44,0.00,,---,0.01,VWS V12.08,2013-03-31 21:18:00,
2013-03-31 16:23:00,50.4,29.9,29.17,NW,322,9.0,15.0,45,0.00,,---,0.01,VWS V12.08,2013-03-31 21:23:00,
2013-03-31 16:28:00,50.4,29.9,29.17,NW,326,14.0,15.0,45,0.00,,---,0.01,VWS V12.08,2013-03-31 21:28:00,
2013-03-31 16:33:00,50.1,30.1,29.17,NW,325,7.0,13.0,46,0.00,,---,0.01,VWS V12.08,2013-03-31 21:33:00,
2013-03-31 16:38:00,49.8,29.9,29.17,NNW,343,7.0,15.0,46,0.00,,---,0.01,VWS V12.08,2013-03-31 21:38:00,
2013-03-31 16:44:00,49.4,29.5,29.17,NW,325,10.0,15.0,46,0.00,,---,0.01,VWS V12.08,2013-03-31 21:44:00,
2013-03-31 16:49:00,49.4,29.5,29.17,WNW,292,4.0,15.0,46,0.00,,---,0.01,VWS V12.08,2013-03-31 21:49:00,
2013-03-31 16:54:00,49.6,29.7,29.17,NNW,329,8.0,15.0,46,0.00,,---,0.01,VWS V12.08,2013-03-31 21:54:00,
2013-03-31 16:59:00,49.0,29.7,29.17,North,352,0.0,15.0,47,0.00,,---,0.01,VWS V12.08,2013-03-31 21:59:00,
2013-03-31 17:05:00,48.7,29.4,29.17,NNW,347,7.0,12.0,47,0.00,,---,0.01,VWS V12.08,2013-03-31 22:05:00,
2013-03-31 17:10:00,48.6,29.8,29.18,NNW,339,7.0,14.0,48,0.00,,---,0.01,VWS V12.08,2013-03-31 22:10:00,
2013-03-31 17:15:00,48.3,30.0,29.18,NNW,334,9.0,14.0,49,0.00,,---,0.01,VWS V12.08,2013-03-31 22:15:00,
2013-03-31 17:22:00,48.5,28.7,29.18,North,353,0.0,14.0,46,0.00,,---,0.01,VWS V12.08,2013-03-31 22:22:00,
2013-03-31 17:29:00,47.8,29.6,29.18,North,355,0.0,14.0,49,0.00,,---,0.01,VWS V12.08,2013-03-31 22:29:00,
2013-03-31 17:34:00,47.7,29.0,29.18,North,355,0.0,0.0,48,0.00,,---,0.01,VWS V12.08,2013-03-31 22:34:00,
2013-03-31 17:40:00,47.4,29.7,29.18,NNW,337,0.0,13.0,50,0.00,,---,0.01,VWS V12.08,2013-03-31 22:40:00,
2013-03-31 17:48:00,47.4,29.7,29.19,NNW,330,0.0,13.0,50,0.00,,---,0.01,VWS V12.08,2013-03-31 22:48:00,
2013-03-31 17:54:00,47.1,29.4,29.19,NNW,335,6.0,13.0,50,0.00,,---,0.01,VWS V12.08,2013-03-31 22:54:00,
2013-03-31 18:00:00,46.6,29.5,29.19,NNW,335,0.0,13.0,51,0.00,,---,0.01,VWS V12.08,2013-03-31 23:00:00,
2013-03-31 18:05:00,46.4,29.8,29.19,NNW,345,0.0,0.0,52,0.00,,---,0.01,VWS V12.08,2013-03-31 23:05:00,
2013-03-31 18:12:00,46.1,29.9,29.19,North,351,0.0,10.0,53,0.00,,---,0.01,VWS V12.08,2013-03-31 23:12:00,
2013-03-31 18:23:00,45.7,30.5,29.20,NNW,346,0.0,11.0,55,0.00,,---,0.01,VWS V12.08,2013-03-31 23:23:00,
2013-03-31 18:29:00,45.3,30.1,29.20,NNW,345,0.0,11.0,55,0.00,,---,0.01,VWS V12.08,2013-03-31 23:29:00,
2013-03-31 18:35:00,44.9,30.2,29.20,NNW,344,3.0,11.0,56,0.00,,---,0.01,VWS V12.08,2013-03-31 23:35:00,
2013-03-31 18:40:00,44.7,30.0,29.20,NNW,342,0.0,12.0,56,0.00,,---,0.01,VWS V12.08,2013-03-31 23:40:00,
2013-03-31 18:45:00,44.3,29.6,29.21,NNW,336,0.0,12.0,56,0.00,,---,0.01,VWS V12.08,2013-03-31 23:45:00,
2013-03-31 18:50:00,43.8,29.1,29.22,NNW,346,0.0,12.0,56,0.00,,---,0.01,VWS V12.08,2013-03-31 23:50:00,
2013-03-31 18:55:00,43.6,29.0,29.22,NNW,342,0.0,12.0,56,0.00,,---,0.01,VWS V12.08,2013-03-31 23:55:00,
2013-03-31 19:00:00,43.4,29.2,29.22,NNW,348,0.0,0.0,57,0.00,,---,0.01,VWS V12.08,2013-04-01 00:00:00,
2013-03-31 19:05:00,43.2,29.4,29.22,North,353,0.0,0.0,58,0.00,,---,0.01,VWS V12.08,2013-04-01 00:05:00,
2013-03-31 19:12:00,43.0,29.2,29.22,NNW,345,0.0,0.0,58,0.00,,---,0.01,VWS V12.08,2013-04-01 00:12:00,
2013-03-31 19:18:00,42.8,29.1,29.22,North,352,0.0,6.0,58,0.00,,---,0.01,VWS V12.08,2013-04-01 00:18:00,
2013-03-31 19:23:00,42.6,28.9,29.22,North,353,0.0,6.0,58,0.00,,---,0.01,VWS V12.08,2013-04-01 00:23:00,
2013-03-31 19:28:00,42.4,29.1,29.23,North,350,0.0,6.0,59,0.00,,---,0.01,VWS V12.08,2013-04-01 00:28:00,
2013-03-31 19:33:00,42.1,28.8,29.23,North,354,0.0,0.0,59,0.00,,---,0.01,VWS V12.08,2013-04-01 00:33:00,
2013-03-31 19:39:00,41.8,29.0,29.23,NNW,347,0.0,0.0,60,0.00,,---,0.01,VWS V12.08,2013-04-01 00:39:00,
2013-03-31 19:45:00,41.6,29.2,29.23,North,354,0.0,0.0,61,0.00,,---,0.01,VWS V12.08,2013-04-01 00:45:00,
2013-03-31 19:50:00,41.4,29.0,29.23,North,356,0.0,0.0,61,0.00,,---,0.01,VWS V12.08,2013-04-01 00:50:00,
2013-03-31 19:55:00,41.2,28.8,29.23,North,355,0.0,0.0,61,0.00,,---,0.01,VWS V12.08,2013-04-01 00:55:00,
2013-03-31 20:00:00,40.9,28.5,29.23,North,355,0.0,0.0,61,0.00,,---,0.01,VWS V12.08,2013-04-01 01:00:00,
2013-03-31 20:05:00,40.7,27.9,29.24,NNW,336,0.0,0.0,60,0.00,,---,0.01,VWS V12.08,2013-04-01 01:05:00,
2013-03-31 20:11:00,40.5,27.7,29.23,North,355,0.0,0.0,60,0.00,,---,0.01,VWS V12.08,2013-04-01 01:11:00,
2013-03-31 20:17:00,40.4,27.6,29.24,North,354,0.0,0.0,60,0.00,,---,0.01,VWS V12.08,2013-04-01 01:17:00,
2013-03-31 20:23:00,40.2,27.8,29.24,North,357,0.0,1.0,61,0.00,,---,0.01,VWS V12.08,2013-04-01 01:23:00,
2013-03-31 20:29:00,40.1,27.8,29.24,North,357,0.0,1.0,61,0.00,,---,0.01,VWS V12.08,2013-04-01 01:29:00,
2013-03-31 20:34:00,39.9,28.0,29.25,North,359,0.0,0.0,62,0.00,,---,0.01,VWS V12.08,2013-04-01 01:34:00,
2013-03-31 20:39:00,39.8,28.2,29.25,North,358,0.0,0.0,63,0.00,,---,0.01,VWS V12.08,2013-04-01 01:39:00,
2013-03-31 20:45:00,39.7,28.1,29.25,NNW,346,0.0,7.0,63,0.00,,---,0.01,VWS V12.08,2013-04-01 01:45:00,
2013-03-31 20:52:00,39.5,28.0,29.25,NNW,347,0.0,7.0,63,0.00,,---,0.01,VWS V12.08,2013-04-01 01:52:00,
2013-03-31 20:57:00,39.4,27.9,29.26,North,358,0.0,7.0,63,0.00,,---,0.01,VWS V12.08,2013-04-01 01:57:00,
2013-03-31 21:02:00,39.3,27.8,29.26,North,358,0.0,0.0,63,0.00,,---,0.01,VWS V12.08,2013-04-01 02:02:00,
2013-03-31 21:07:00,39.2,27.7,29.26,North,359,0.0,0.0,63,0.00,,---,0.01,VWS V12.08,2013-04-01 02:07:00,
2013-03-31 21:12:00,39.2,27.7,29.27,North,359,0.0,0.0,63,0.00,,---,0.01,VWS V12.08,2013-04-01 02:12:00,
2013-03-31 21:21:00,39.0,27.5,29.27,NNW,345,0.0,5.0,63,0.00,,---,0.01,VWS V12.08,2013-04-01 02:21:00,
2013-03-31 21:27:00,39.0,27.1,29.27,North,356,0.0,5.0,62,0.00,,---,0.01,VWS V12.08,2013-04-01 02:27:00,
2013-03-31 21:33:00,39.0,26.3,29.28,NNW,333,6.0,9.0,60,0.00,,---,0.01,VWS V12.08,2013-04-01 02:33:00,
2013-03-31 21:38:00,38.9,26.2,29.29,NNW,338,2.0,10.0,60,0.00,,---,0.01,VWS V12.08,2013-04-01 02:38:00,
2013-03-31 21:43:00,38.9,25.8,29.28,NNW,344,0.0,12.0,59,0.00,,---,0.01,VWS V12.08,2013-04-01 02:43:00,
2013-03-31 21:48:00,38.8,25.7,29.28,NNW,336,0.0,12.0,59,0.00,,---,0.01,VWS V12.08,2013-04-01 02:48:00,
2013-03-31 21:54:00,38.7,25.6,29.29,North,352,0.0,12.0,59,0.00,,---,0.01,VWS V12.08,2013-04-01 02:54:00,
2013-03-31 22:00:00,38.5,25.4,29.29,North,353,0.0,12.0,59,0.00,,---,0.01,VWS V12.08,2013-04-01 03:00:00,
2013-03-31 22:05:00,38.5,25.0,29.29,North,350,0.0,10.0,58,0.00,,---,0.01,VWS V12.08,2013-04-01 03:05:00,
2013-03-31 22:10:00,38.5,24.6,29.29,NNW,331,8.0,10.0,57,0.00,,---,0.01,VWS V12.08,2013-04-01 03:10:00,
2013-03-31 22:15:00,38.3,24.4,29.29,NNW,336,5.0,12.0,57,0.00,,---,0.01,VWS V12.08,2013-04-01 03:15:00,
2013-03-31 22:20:00,38.1,23.8,29.29,NNW,347,0.0,12.0,56,0.00,,---,0.01,VWS V12.08,2013-04-01 03:20:00,
2013-03-31 22:26:00,38.2,23.9,29.30,NNW,343,0.0,12.0,56,0.00,,---,0.01,VWS V12.08,2013-04-01 03:26:00,
2013-03-31 22:31:00,37.9,24.0,29.30,NNW,348,0.0,0.0,57,0.00,,---,0.01,VWS V12.08,2013-04-01 03:31:00,
2013-03-31 22:36:00,37.3,23.1,29.31,North,359,7.0,8.0,56,0.00,,---,0.01,VWS V12.08,2013-04-01 03:36:00,
2013-03-31 22:42:00,36.8,23.0,29.30,NNW,345,0.0,9.0,57,0.00,,---,0.01,VWS V12.08,2013-04-01 03:42:00,
2013-03-31 22:47:00,36.5,22.3,29.31,North,351,0.0,9.0,56,0.00,,---,0.01,VWS V12.08,2013-04-01 03:47:00,
2013-03-31 22:52:00,36.3,21.7,29.31,NNW,330,10.0,12.0,55,0.00,,---,0.01,VWS V12.08,2013-04-01 03:52:00,
2013-03-31 22:57:00,36.2,21.6,29.31,NNW,339,0.0,12.0,55,0.00,,---,0.01,VWS V12.08,2013-04-01 03:57:00,
2013-03-31 23:00:00,36.2,22.0,29.31,North,350,0.0,12.0,56,0.00,,---,0.01,VWS V12.08,2013-04-01 04:00:00,
2013-03-31 23:03:00,36.1,22.4,29.31,North,350,0.0,0.0,57,0.00,,---,0.01,VWS V12.08,2013-04-01 04:03:00,
2013-03-31 23:05:00,36.0,22.3,29.31,North,350,0.0,0.0,57,0.00,,---,0.01,VWS V12.08,2013-04-01 04:05:00,
2013-03-31 23:10:00,35.8,22.5,29.31,North,352,0.0,7.0,58,0.00,,---,0.01,VWS V12.08,2013-04-01 04:10:00,
2013-03-31 23:17:00,35.6,21.5,29.32,NW,326,9.0,11.0,56,0.00,,---,0.01,VWS V12.08,2013-04-01 04:17:00,
2013-03-31 23:18:00,35.6,21.5,29.32,NNW,334,7.0,11.0,56,0.00,,---,0.01,VWS V12.08,2013-04-01 04:18:00,
2013-03-31 23:23:00,35.5,22.2,29.32,NNW,348,0.0,13.0,58,0.00,,---,0.01,VWS V12.08,2013-04-01 04:23:00,
2013-03-31 23:28:00,35.4,22.9,29.32,NNW,331,10.0,13.0,60,0.00,,---,0.01,VWS V12.08,2013-04-01 04:28:00,
2013-03-31 23:34:00,35.2,22.3,29.32,North,351,0.0,0.0,59,0.00,,---,0.01,VWS V12.08,2013-04-01 04:34:00,
2013-03-31 23:39:00,35.0,22.5,29.32,NNW,348,0.0,14.0,60,0.00,,---,0.01,VWS V12.08,2013-04-01 04:39:00,
2013-03-31 23:44:00,34.9,22.0,29.32,NNW,330,12.0,14.0,59,0.00,,---,0.01,VWS V12.08,2013-04-01 04:44:00,
2013-03-31 23:49:00,34.6,21.0,29.32,NW,315,9.0,14.0,57,0.00,,---,0.01,VWS V12.08,2013-04-01 04:49:00,
2013-03-31 23:55:00,34.4,20.8,29.32,NNW,344,0.0,14.0,57,0.00,,---,0.01,VWS V12.08,2013-04-01 04:55:00,